IGO167 VAPO-VOBL

Flight info

Callsign IGO167
Flight time N/A
Altitude 37000
Route AVKOR1A AVKOR W128 EPKOS Q9 RIKBU RIKBU7F
Aircraft A20N/M-SDE2E3FGHIRWXY/LB1

Departure

Time 2026-04-24 05:49
Airport Pune International Airport (VAPO)

Arrival

Time N/A
Airport Kempegowda International Airport Bengaluru (VOBL)
Time Latitude Longitude Altitude Speed Heading
2026-04-24 05:34 18.57992 73.90915 1926 ft 0 kts 189°
2026-04-24 05:39 18.57998 73.90916 1931 ft 3 kts 189°
2026-04-24 05:39 18.58017 73.90919 1926 ft 3 kts 189°
2026-04-24 05:39 18.58035 73.90923 1926 ft 3 kts 189°
2026-04-24 05:40 18.58053 73.90928 1928 ft 3 kts 217°
2026-04-24 05:40 18.58062 73.90938 1927 ft 3 kts 245°
2026-04-24 05:40 18.58065 73.90957 1925 ft 3 kts 287°
2026-04-24 05:40 18.58058 73.90982 1926 ft 3 kts 286°
2026-04-24 05:41 18.58053 73.91001 1925 ft 3 kts 286°
2026-04-24 05:41 18.58051 73.91011 1928 ft 0 kts 269°
2026-04-24 05:45 18.58051 73.91010 1928 ft 0 kts 269°
2026-04-24 05:45 18.58051 73.91004 1927 ft 4 kts 269°
2026-04-24 05:46 18.58056 73.90943 1928 ft 9 kts 292°
2026-04-24 05:46 18.58107 73.90926 1925 ft 9 kts
2026-04-24 05:46 18.58167 73.90936 1926 ft 1 kts
2026-04-24 05:46 18.58174 73.90937 1926 ft 1 kts
2026-04-24 05:47 18.58175 73.90938 1926 ft 0 kts
2026-04-24 05:47 18.58181 73.90939 1925 ft 5 kts
2026-04-24 05:47 18.58249 73.90951 1927 ft 14 kts 10°
2026-04-24 05:47 18.58287 73.90979 1928 ft 5 kts 72°
2026-04-24 05:48 18.58287 73.91010 1929 ft 4 kts 94°
2026-04-24 05:48 18.58273 73.91204 1927 ft 57 kts 94°
2026-04-24 05:48 18.58228 73.91825 1929 ft 111 kts 92°
2026-04-24 05:48 18.58181 73.92798 1951 ft 153 kts 92°
2026-04-24 05:49 18.58136 73.93867 2467 ft 143 kts 88°
2026-04-24 05:49 18.58046 73.94956 2793 ft 153 kts 93°
2026-04-24 05:49 18.57914 73.96048 3292 ft 150 kts 94°
2026-04-24 05:49 18.57574 73.97122 3630 ft 165 kts 118°
2026-04-24 05:50 18.56625 73.97959 3808 ft 202 kts 158°
2026-04-24 05:50 18.55143 73.97886 4048 ft 234 kts 202°
2026-04-24 05:50 18.53656 73.96898 4139 ft 275 kts 217°
2026-04-24 05:50 18.52022 73.95489 3854 ft 323 kts 223°
2026-04-24 05:51 18.50471 73.93992 5238 ft 295 kts 222°
2026-04-24 05:51 18.48945 73.92572 6107 ft 282 kts 221°
2026-04-24 05:51 18.47496 73.91241 6603 ft 290 kts 220°
2026-04-24 05:51 18.45870 73.89790 6532 ft 325 kts 219°